Theta_e
305 304 302 301 299 296 295 294 293 292 291 291 291 291 290 289 288 288 287 287 286 285 285 283 283 283 282 282 281 279 278 278 279 281 280 284 280 278 277 277 278 278 279
305 303 301 299 298 295 294 293 292 291 291 291 291 290 289 288 288 287 287 286 285 285 283 283 282 282 282 281 279 277 277 276 276 277 277 277 276 276 276 277 277 277 278
303 301 299 297 296 295 293 292 291 290 290 290 290 290 288 287 287 286 286 285 284 283 282 282 281 281 280 279 277 276 276 276 276 276 276 276 276 276 276 276 277 278 279
303 301 299 297 296 294 292 291 290 290 289 290 289 288 287 287 286 286 284 284 283 282 281 281 281 280 279 277 276 275 276 275 276 276 276 276 276 276 276 277 277 278 280
302 300 298 295 294 292 290 289 289 288 289 289 288 287 287 286 286 284 283 282 281 281 281 281 280 279 278 276 276 276 276 276 276 277 277 277 277 277 277 278 278 279 279
302 299 297 294 293 291 289 289 288 288 288 288 287 286 286 285 284 283 282 281 281 280 280 280 279 277 277 275 276 276 277 278 277 277 277 277 277 277 278 278 278 279 280
300 297 295 294 292 290 288 288 287 288 287 287 286 285 285 284 283 282 280 280 280 279 279 278 277 277 276 275 275 275 276 276 276 276 277 276 276 276 277 277 279 280 280
299 297 295 293 292 290 288 287 287 287 287 286 285 285 284 283 282 281 280 280 279 278 277 277 277 276 275 276 276 276 275 275 275 275 276 276 276 276 276 276 277 278 279
298 297 295 292 290 289 288 287 287 287 286 286 285 284 284 282 281 280 279 278 278 276 276 276 276 275 274 275 276 275 275 275 275 276 276 277 277 278 279 279 279 279 279
297 295 293 291 289 288 287 287 287 286 286 285 284 283 283 281 280 279 279 276 276 275 276 276 276 275 274 275 276 275 275 274 274 275 276 277 277 277 277 278 280 281 281
297 295 292 289 288 286 286 286 286 286 285 284 284 282 281 280 280 279 277 275 275 275 275 275 275 274 275 274 274 274 273 275 275 275 275 276 278 277 277 277 277 279 280
296 293 290 288 286 285 285 286 285 285 284 284 282 281 280 279 278 277 275 275 275 274 274 274 274 274 273 273 272 272 273 273 272 272 273 276 277 277 277 278 278 279 280
294 291 289 286 285 285 285 284 285 285 282 281 280 279 279 278 277 275 275 274 273 273 273 273 273 275 275 275 271 271 271 270 271 271 272 274 276 278 279 279 279 280 281
291 287 286 284 284 283 283 283 285 282 281 280 279 279 278 277 276 275 274 273 273 273 272 273 274 274 274 272 272 270 269 270 270 271 271 272 274 275 278 280 281 281 282
288 286 284 283 283 284 284 286 285 281 281 279 279 277 277 276 275 274 273 273 273 272 272 273 274 274 273 271 271 271 270 270 270 271 271 271 273 273 275 279 281 283 283
287 284 282 282 282 284 284 282 279 279 278 277 277 276 276 275 273 272 272 272 271 271 272 273 273 271 271 270 269 269 269 269 269 270 271 271 272 272 272 276 280 281 284
285 284 282 282 285 282 284 280 281 277 276 275 275 275 274 275 273 271 271 272 272 273 273 272 271 271 271 270 269 269 268 269 269 271 271 271 271 270 271 272 276 278 282
282 282 282 285 282 284 281 282 278 278 277 275 274 274 274 274 273 270 272 272 274 273 272 271 271 271 271 270 270 269 269 269 270 270 271 271 269 269 269 271 273 276 281
280 280 283 281 281 281 282 278 277 275 274 274 274 273 274 273 273 272 272 272 271 271 271 271 271 271 271 271 270 270 269 269 270 271 271 269 269 269 269 270 272 274 277
279 282 283 282 280 280 277 276 275 274 273 273 273 273 273 272 271 271 271 271 271 270 270 270 271 271 271 271 271 270 270 269 270 271 270 269 269 269 269 270 270 272 276
278 282 283 280 282 276 276 275 274 273 273 273 272 273 273 272 272 271 271 272 271 270 270 270 270 271 271 271 271 271 270 270 271 271 270 269 269 269 269 269 270 273 275
279 281 280 281 276 275 275 274 274 273 273 272 272 273 272 272 272 271 272 271 271 270 270 270 270 270 270 271 271 271 270 271 271 271 270 270 269 269 269 269 272 275 277
278 278 278 276 276 275 273 273 273 273 273 271 273 272 271 271 271 272 272 271 271 270 270 270 270 270 270 271 271 271 271 271 272 271 271 270 269 269 269 270 272 276 279
279 279 276 276 274 273 274 273 272 272 271 271 272 271 271 271 271 272 272 271 270 270 270 270 270 270 270 270 271 272 272 272 272 271 272 271 270 269 269 271 273 277 282
278 277 277 275 274 273 272 272 272 271 270 271 271 271 271 270 271 272 271 270 269 270 270 270 270 270 270 270 271 271 272 272 272 271 271 272 272 271 270 271 272 278 282
277 277 274 273 273 272 272 271 271 270 270 271 271 271 270 270 271 270 270 270 269 270 270 270 269 269 269 270 270 271 271 272 272 271 270 272 272 273 271 271 273 275 281
Wind_Speed
44 43 44 43 43 47 48 47 44 39 36 32 29 27 26 26 26 27 27 28 29 31 32 33 35 35 37 40 41 42 41 37 44 70 69 72 70 63 54 56 59 58 57
47 46 45 45 44 47 47 46 42 39 35 31 28 27 27 26 26 26 27 28 30 33 33 34 36 37 40 40 42 43 43 41 41 50 66 68 62 62 55 54 57 57 54
46 46 46 46 46 48 47 44 41 37 33 30 28 27 26 26 26 26 27 28 31 33 33 35 37 39 41 42 42 42 42 42 43 46 57 58 59 56 58 56 54 52 47
44 45 47 48 48 48 44 41 39 36 33 31 28 26 25 26 25 26 27 29 31 33 34 36 38 39 41 41 41 41 43 45 46 48 52 54 51 53 50 51 52 48 45
43 44 46 47 47 45 39 38 38 36 33 31 27 25 25 25 25 24 26 29 32 34 35 37 39 39 38 34 38 43 44 47 48 48 51 50 49 47 45 45 47 47 54
42 43 45 46 46 42 37 38 38 35 32 29 26 25 24 24 23 23 26 29 32 34 36 37 38 39 40 35 35 38 40 47 52 51 53 49 50 48 49 50 47 46 44
40 41 43 44 43 39 36 38 38 34 31 28 25 24 23 22 22 23 26 29 31 32 34 36 38 40 41 43 43 43 46 46 47 52 58 55 53 49 50 54 50 48 49
40 41 43 44 41 38 37 40 38 34 30 25 24 23 21 21 21 23 26 28 30 31 32 34 38 42 41 39 44 50 53 51 49 49 52 56 56 54 49 56 55 53 55
40 41 43 42 40 40 41 41 36 32 28 26 23 22 21 19 21 22 24 25 28 31 32 35 35 41 41 38 42 49 56 55 50 49 49 50 50 50 49 49 49 46 52
37 40 40 39 39 39 40 38 35 30 27 24 23 21 20 18 18 19 19 22 27 31 34 36 39 38 36 39 46 50 54 53 50 50 52 50 49 47 44 45 48 50 51
35 38 40 39 39 39 38 37 34 29 26 24 21 20 17 16 15 15 15 18 24 30 37 39 40 36 38 42 39 43 48 43 48 49 49 47 46 46 43 42 49 49 51
35 37 38 37 39 41 40 36 30 27 26 24 21 17 14 12 11 12 12 15 20 28 34 38 37 38 40 37 36 35 40 38 41 40 40 36 36 36 39 42 42 43 48
35 37 36 38 42 42 38 32 28 28 25 21 18 14 10 8 7 9 14 15 20 24 29 29 35 37 37 38 34 33 37 32 36 38 38 36 35 33 41 42 42 44 50
35 36 37 44 44 41 36 31 30 27 24 21 17 12 7 6 5 10 16 21 24 26 27 31 31 32 33 35 37 36 36 33 35 38 39 38 37 38 33 39 39 40 43
37 39 43 46 44 39 34 32 30 26 22 18 14 10 6 3 5 8 12 16 20 20 25 28 32 35 37 39 39 39 39 43 36 40 40 40 36 38 33 26 31 37 41
42 45 50 49 45 40 37 33 28 23 21 17 12 8 4 1 4 6 8 12 15 18 24 29 33 36 38 41 42 44 42 44 41 42 43 41 37 39 38 34 35 28 37
45 50 53 50 46 42 38 34 30 26 21 17 13 8 3 2 2 4 8 11 15 18 24 28 31 36 39 41 42 44 44 47 43 45 46 39 43 38 35 35 33 33 29
46 53 53 49 46 41 38 32 30 26 24 19 14 9 5 2 1 3 7 10 13 18 24 27 31 34 39 42 44 46 49 49 46 49 43 44 40 37 37 34 33 33 33
53 54 51 47 42 39 35 32 28 24 21 17 15 11 7 4 2 2 6 11 16 20 23 27 29 33 36 41 45 48 48 46 49 48 47 44 42 39 37 34 34 34 32
52 54 49 47 41 36 34 31 28 25 22 18 16 13 10 7 4 1 5 10 14 18 22 26 28 31 35 39 43 49 50 47 50 53 51 47 43 40 38 37 35 35 33
59 54 52 45 40 37 33 29 27 25 22 20 18 15 11 8 4 3 7 12 15 18 21 24 27 30 34 39 42 45 49 49 50 58 56 52 47 44 41 37 36 33 32
57 55 50 42 39 34 31 30 27 25 22 21 19 15 11 7 3 5 8 12 13 16 19 23 25 28 33 38 42 44 46 49 50 62 61 56 49 46 43 41 35 31 29
53 49 44 40 36 33 32 29 27 25 22 20 16 13 10 6 3 4 8 10 12 14 16 20 24 27 30 34 37 41 41 46 47 65 61 56 53 50 46 43 36 31 28
47 43 39 37 36 34 30 29 26 23 21 18 14 11 8 5 1 4 7 9 12 13 16 19 22 27 28 31 34 38 37 45 45 62 59 57 54 53 51 46 38 33 27
43 39 35 36 34 32 30 27 25 23 20 16 13 10 6 3 1 5 7 9 11 13 16 19 22 25 28 27 31 35 38 42 47 58 59 58 57 55 54 49 42 34 25
38 35 35 32 31 29 27 26 24 21 18 15 12 8 5 2 2 5 8 11 13 14 16 18 21 24 27 26 30 34 39 40 45 55 59 58 59 58 58 54 48 39 30
Wind_Direction
235 237 238 240 241 241 239 236 234 235 235 238 246 254 261 265 270 275 281 288 291 293 294 294 295 298 296 295 292 288 277 264 263 285 289 297 294 293 293 292 291 291 290
239 236 237 238 241 241 239 235 231 232 234 238 246 254 259 265 269 276 284 288 291 292 294 295 296 298 297 297 295 289 284 274 265 269 285 289 287 292 291 290 289 291 293
240 236 237 238 239 241 239 234 230 230 234 238 245 254 261 266 272 280 285 289 291 293 295 296 301 300 299 301 297 286 281 277 273 271 275 280 283 285 288 288 289 291 293
241 239 238 239 240 240 238 234 229 230 233 239 245 253 259 266 273 280 287 291 293 296 299 299 300 302 302 302 295 287 288 283 279 276 277 278 279 282 280 281 284 290 292
242 242 240 237 238 239 236 232 227 228 233 239 245 253 259 266 274 282 289 292 295 297 300 304 305 305 305 293 289 289 288 284 281 280 280 279 278 277 274 278 280 284 288
244 242 236 235 236 235 232 228 225 228 233 241 248 253 259 267 276 288 292 293 296 300 303 307 309 310 311 298 292 289 285 284 284 282 281 279 281 278 276 271 274 277 281
242 236 234 233 232 232 230 223 222 226 233 240 247 254 259 270 282 288 291 294 297 302 307 311 315 317 316 310 306 298 293 287 281 281 278 275 278 279 277 273 274 275 276
236 233 231 230 229 227 225 220 220 224 231 239 247 252 261 273 283 288 295 296 301 306 313 319 321 321 312 307 305 300 297 294 290 285 280 278 273 276 275 272 272 275 277
233 231 230 228 225 220 213 213 218 224 229 237 244 251 262 273 280 291 293 298 306 316 319 321 319 311 312 311 307 302 301 297 294 289 283 279 276 272 268 270 266 266 269
229 226 226 225 223 217 211 210 215 220 230 233 240 252 263 273 284 287 297 308 314 318 321 317 318 317 313 316 310 304 300 300 301 299 295 289 279 278 265 260 264 260 265
230 226 223 220 216 211 208 210 213 217 226 231 240 248 259 271 281 295 305 309 316 320 311 318 324 321 320 316 315 302 302 303 302 298 296 296 286 269 269 268 262 259 263
230 227 221 214 206 204 207 208 210 216 222 227 232 241 253 273 295 303 310 314 319 311 316 320 327 322 320 319 319 311 312 304 304 313 303 303 292 281 271 269 269 263 260
231 224 217 207 201 201 204 206 211 220 222 225 230 232 246 269 293 315 327 327 323 319 319 323 323 327 330 333 331 322 324 323 325 317 314 304 296 295 284 273 271 269 262
231 222 208 201 196 196 199 202 212 216 219 223 225 235 244 273 310 329 341 337 331 328 333 332 330 335 342 342 345 345 337 332 324 321 315 308 300 301 292 276 269 264 258
226 218 205 199 196 193 198 206 212 211 221 222 223 219 236 279 339 346 339 334 328 337 330 336 345 351 350 351 350 352 345 342 330 326 321 320 313 310 297 280 277 268 255
218 209 202 196 192 193 194 196 200 206 207 210 204 210 216 304 337 351 343 340 343 345 345 353 357 358 357 355 352 348 347 338 338 327 325 321 313 310 304 290 272 282 253
215 206 198 193 194 192 193 194 197 194 193 195 191 189 180 268 1 359 357 3 353 356 360 4 2 1 359 358 355 349 339 340 339 329 325 320 316 311 306 297 287 278 276
212 205 195 196 194 193 193 194 198 199 188 181 180 175 162 194 96 26 12 4 0 10 12 7 2 2 1 0 358 353 348 343 337 331 329 323 320 315 309 302 292 284 274
203 196 196 193 192 193 193 193 191 188 184 176 171 164 164 175 149 49 1 358 8 12 11 9 4 1 359 1 1 358 350 344 336 336 332 328 325 322 313 308 300 289 281
198 193 192 193 189 193 189 186 182 182 177 173 168 164 165 173 154 262 5 13 14 9 7 6 4 360 358 359 359 359 353 346 340 340 337 334 330 326 317 313 305 296 286
191 189 191 185 190 186 184 179 179 177 173 171 168 166 170 165 150 53 24 15 12 8 3 1 1 360 359 359 357 353 355 347 342 343 341 338 336 329 326 319 310 299 291
190 185 183 182 182 181 179 177 175 176 172 171 165 160 161 142 106 42 24 18 11 6 1 358 357 359 359 360 359 355 353 349 343 346 346 345 339 336 332 328 323 309 297
187 179 175 174 177 177 175 173 174 174 171 168 160 159 149 137 105 32 19 9 5 359 356 357 357 357 1 0 2 360 354 354 344 349 354 352 345 342 341 339 335 321 306
182 175 170 174 173 174 172 172 172 170 171 161 158 157 151 140 119 19 5 359 355 354 355 356 358 1 359 360 1 4 1 3 349 350 359 359 352 353 351 352 346 334 320
172 169 172 174 174 171 170 171 170 171 164 162 161 160 151 169 50 6 352 349 341 348 354 354 358 2 1 359 2 4 9 6 351 354 1 4 5 6 1 0 357 350 342
165 170 173 172 170 172 172 171 170 166 164 165 164 162 172 188 359 348 341 336 339 347 351 353 355 358 3 359 4 5 11 5 353 357 3 6 9 11 10 8 6 4 2